DW8004 Weather Reports


Display with metric or nautical units.
time (UTC)temp
F
wind
direction
speed
MPH
gust
MPH
rain 1hr
in
rain 24hr
in
rain mn
in
humidity
%
barometer
mb
20260510094513 47 71 0.0 0.0 0.00 0.59 0.00 98 1010.5
20260510093009 46 71 0.0 0.0 0.00 0.59 0.00 97 1010.6
20260510091508 46 71 0.0 0.0 0.00 0.59 0.00 97 1010.3
20260510090127 46 71 0.0 0.0 0.00 0.59 0.00 97 1010.3
20260510084556 47 71 0.0 0.0 0.00 0.59 0.00 97 1010.3
20260510083031 46 71 0.0 0.0 0.00 0.59 0.00 97 1010.7
20260510081604 47 71 0.0 0.0 0.00 0.59 0.00 97 1010.9
20260510080058 47 69 0.0 0.0 0.00 0.59 0.00 97 1010.9
20260510074557 47 69 0.0 0.0 0.00 0.59 0.00 97 1010.9
20260510073051 47 69 0.0 0.0 0.00 0.59 0.00 97 1011.1
20260510071541 47 69 0.0 0.0 0.00 0.59 0.00 97 1010.9
20260510070044 46 69 0.0 0.0 0.00 0.59 0.00 97 1010.7
20260510064638 46 69 0.0 0.0 0.00 0.59 0.00 97 1010.6
20260510063054 46 69 0.0 0.0 0.00 0.59 0.00 98 1010.8
20260510061542 46 68 0.0 0.0 0.00 0.59 0.00 98 1010.9
20260510060024 46 105 0.0 0.0 0.00 0.59 0.00 98 1011.0
20260510054555 46 237 0.0 0.0 0.00 0.59 0.00 97 1011.0
20260510053100 46 69 0.0 0.0 0.00 0.59 0.00 97 1010.9
20260510051604 46 69 0.0 0.0 0.00 0.59 0.00 97 1011.1
20260510050043 46 69 0.0 0.0 0.00 0.59 0.00 97 1011.2
20260510044532 46 69 0.0 0.0 0.00 0.59 0.00 97 1011.3
20260510043041 46 69 0.0 0.0 0.00 0.59 0.00 97 1011.3
20260510041537 46 69 0.0 0.0 0.00 0.59 0.00 97 1011.4
20260510034530 46 69 0.0 0.0 0.00 0.59 0.59 97 1011.6
20260510033004 46 69 0.0 0.0 0.00 0.59 0.59 97 1011.5
20260510031610 46 69 0.0 0.0 0.00 0.59 0.59 97 1011.5
20260510030100 45 69 0.0 0.0 0.00 0.59 0.59 97 1011.6
20260510024555 46 69 0.0 0.0 0.00 0.59 0.59 97 1011.5
20260510023054 46 69 0.0 0.0 0.00 0.59 0.59 97 1011.5
20260510021557 46 67 0.0 0.0 0.00 0.59 0.59 97 1011.6
20260510020036 46 93 0.0 0.0 0.00 0.59 0.59 96 1011.9
20260510014539 46 93 0.0 0.0 0.00 0.59 0.59 96 1012.0
20260510013023 46 93 0.0 0.0 0.00 0.59 0.59 97 1011.9
20260510011607 46 93 0.0 0.0 0.00 0.59 0.59 96 1011.9
20260510004540 45 93 0.0 0.0 0.00 0.59 0.59 96 1011.5
20260510003021 45 96 0.0 0.0 0.00 0.59 0.59 96 1011.4
20260510001508 46 94 0.0 0.0 0.00 0.59 0.59 96 1011.3
20260510000006 46 94 0.0 0.0 0.00 0.59 0.59 96 1011.0
20260509234533 46 94 0.0 0.0 0.00 0.59 0.59 96 1011.0
20260509233101 46 94 0.0 0.0 0.00 0.59 0.59 96 1010.9
20260509231603 46 105 0.0 0.0 0.00 0.59 0.59 96 1011.0
20260509230031 46 91 0.0 0.0 0.00 0.59 0.59 96 1010.8
20260509224513 45 105 0.0 0.0 0.00 0.59 0.59 96 1010.9
20260509223048 46 127 0.0 0.0 0.00 0.59 0.59 96 1010.9
20260509221536 45 81 0.0 0.0 0.00 0.59 0.59 96 1010.9
20260509220103 45 108 0.0 0.0 0.00 0.59 0.59 96 1010.9
20260509214545 45 108 0.0 0.0 0.01 0.59 0.59 96 1011.0
20260509213035 45 108 0.0 0.0 0.01 0.59 0.59 96 1011.1
20260509211502 44 108 0.0 0.0 0.02 0.59 0.59 96 1011.3
20260509210112 44 107 0.0 0.0 0.02 0.59 0.59 96 1011.5
20260509204559 44 92 0.0 0.0 0.03 0.57 0.57 96 1011.8
20260509203040 44 92 0.0 0.0 0.05 0.57 0.57 96 1011.9
20260509201513 44 92 0.0 0.0 0.06 0.56 0.56 96 1012.0
20260509200109 44 91 0.0 0.0 0.08 0.56 0.56 96 1012.0
20260509194603 44 91 0.0 0.0 0.08 0.55 0.55 96 1012.1
20260509193052 43 94 0.0 0.0 0.10 0.53 0.53 96 1012.0
20260509191543 43 94 0.0 0.0 0.10 0.51 0.51 96 1012.0
20260509190017 43 94 0.0 0.0 0.10 0.49 0.49 96 1012.3
20260509184516 43 94 0.0 0.0 0.10 0.47 0.47 96 1012.4
20260509183133 42 94 0.0 0.0 0.09 0.44 0.44 96 1012.6
20260509181549 42 91 0.0 0.0 0.09 0.41 0.41 95 1012.7
20260509180045 42 78 0.0 0.0 0.10 0.39 0.39 95 1012.7
20260509174505 42 147 0.0 0.0 0.10 0.37 0.37 95 1012.9
20260509173105 43 134 0.0 0.0 0.10 0.35 0.35 95 1012.9
20260509171550 42 134 0.0 0.0 0.10 0.32 0.33 95 1013.0
20260509170020 42 130 0.0 0.0 0.08 0.28 0.28 95 1013.2
20260509164504 42 130 0.0 0.0 0.08 0.27 0.27 95 1013.2
20260509163045 41 131 0.0 0.0 0.08 0.25 0.25 95 1013.3
20260509161507 41 131 0.0 0.0 0.07 0.22 0.22 95 1013.6
20260509160109 41 83 0.0 0.0 0.09 0.21 0.21 95 1013.8
20260509154605 41 83 0.0 0.0 0.10 0.19 0.19 95 1014.1
20260509153021 41 252 0.0 0.0 0.10 0.17 0.17 96 1014.3
20260509151615 40 252 0.0 0.0 0.09 0.15 0.15 95 1014.4
20260509150108 41 108 0.0 0.0 0.06 0.12 0.12 96 1014.4
20260509144600 40 108 0.0 0.0 0.04 0.09 0.09 95 1014.5
20260509143035 40 108 0.0 0.0 0.02 0.07 0.07 95 1014.3
20260509141522 40 216 0.0 0.0 0.03 0.06 0.06 95 1014.2
20260509140005 39 216 0.0 0.0 0.03 0.06 0.06 95 1014.1
20260509134602 38 216 0.0 0.0 0.03 0.05 0.05 94 1014.1
20260509133100 38 216 0.0 0.0 0.04 0.05 0.05 94 1014.3
20260509131511 38 216 0.0 0.0 0.03 0.03 0.03 93 1014.2
20260509130059 37 216 0.0 0.0 0.03 0.03 0.03 93 1014.3
20260509124550 37 216 0.0 0.0 0.01 0.01 0.02 93 1014.3
20260509123007 36 216 0.0 0.0 0.01 0.01 0.01 93 1014.5
20260509121559 35 216 0.0 0.0 0.00 0.00 0.00 92 1014.4
20260509120045 35 216 0.0 0.0 0.00 0.00 0.00 92 1014.6
20260509114550 34 216 0.0 0.0 0.00 0.00 0.00 91 1014.7
20260509113032 34 216 0.0 0.0 0.00 0.00 0.00 92 1014.8
20260509111527 34 216 0.0 0.0 0.00 0.00 0.00 92 1015.0
20260509110032 33 217 0.0 0.0 0.00 0.00 0.00 92 1014.9
20260509104502 32 217 0.0 0.0 0.00 0.00 0.00 92 1015.0
20260509103054 32 217 0.0 0.0 0.00 0.00 0.00 93 1015.1
20260509101553 31 217 0.0 0.0 0.00 0.00 0.00 92 1015.1
20260509100058 31 217 0.0 0.0 0.00 0.00 0.00 92 1014.9